[[{"header":{"parameterUnit":"m.s-1","parameterCategory":1,"la1":30.2991,"la2":30.254,"lo1":-89.0895,"lo2":-89.0444,"dy":0.0017,"dx":0.0017,"nx":28,"ny":28,"refTime":"2025-09-16T09:00:00:Z","depth":0,"parameterNumber":2,"parameterNumberName":"U-component_of_WINDS"},"data":[0,0,0,0,0,0,0,0,0,0,0,0,0,0,0,0,0,0,0,0,0,0,0,0,0,0,0,0,0,0,0,0,0,0,0,0,0,0,0,0,0,0,0,0,0,0,0,0,0,0,0,0,0,0,0,0,0,0,-1.1,-1.1001,0,-1.1039,-1.104,-1.104,-1.1026,-1.1025,-1.1024,-1.1023,-1.1064,-1.1065,-1.1067,0,0,0,0,0,0,0,0,0,0,0,0,0,-1.0915,-1.0916,-1.1,-1.1001,-1.1001,-1.1039,-1.104,-1.104,-1.1026,-1.1025,-1.1024,-1.1023,-1.1063,-1.1065,-1.1067,0,0,0,0,0,0,0,0,0,0,0,0,0,-1.0953,-1.0917,-1.1,-1.0999,-1.0999,-1.1039,-1.104,-1.104,-1.1026,-1.1025,-1.1024,-1.1022,-1.1062,-1.1065,-1.1068,-1.1112,0,0,-1.1077,-1.1078,0,0,0,0,0,0,0,0,-1.095,-1.0956,-1.0998,-1.0999,-1.0999,-1.1026,-1.1024,-1.1064,-1.1026,-1.1016,-1.1023,-1.1022,-1.1052,-1.1056,-1.1066,-1.1114,-1.1115,-1.1077,-1.1078,-1.108,-1.1081,0,0,0,0,0,0,0,-1.0948,-1.0954,-1.1016,-1.0999,-1.1,-1.0996,-1.1,-1.1032,-1.1041,-1.1017,-1.1016,-1.102,-1.1052,-1.1063,-1.1067,-1.1116,-1.1077,-1.1079,-1.1081,-1.1082,-1.1202,-1.1204,0,0,0,0,0,0,-1.0945,-1.0952,-1.1014,-1.1017,-1.0971,-1.0999,-1.1003,-1.1019,-1.1041,-1.1043,-1.1022,-1.102,-1.1059,-1.1064,-1.1068,-1.1122,-1.108,-1.1082,-1.1084,-1.1201,-1.1203,-1.1204,0,0,0,0,0,0,-1.0943,-1.0951,-1.1013,-1.0984,-1.0992,-1.1002,-1.1019,-1.102,-1.1031,-1.1044,-1.1046,-1.1031,-1.1058,-1.1064,-1.1101,-1.1123,-1.1084,-1.1086,-1.1199,-1.1201,-1.1203,-1.1228,0,0,0,0,0,0,-1.0941,-1.095,-1.0967,-1.0985,-1.0993,-1.1045,-1.1021,-1.1022,-1.1036,-1.1034,-1.1054,-1.1056,-1.1058,-1.1097,-1.1104,-1.1126,-1.1088,-1.1197,-1.12,-1.1203,-1.1226,-1.1231,-1.1236,0,0,0,0,0,-1.0938,-1.0972,-1.0968,-1.0975,-1.1014,-1.1046,-1.1051,-1.1053,-1.1038,-1.1055,-1.1063,-1.1055,-1.1119,-1.1101,-1.1109,-1.1132,-1.1196,-1.1199,-1.1202,-1.1223,-1.123,-1.1236,0,0,0,0,0,0,-1.0957,-1.0975,-1.097,-1.1011,-1.1027,-1.1044,-1.1065,-1.106,-1.108,-1.1078,-1.1079,-1.1083,-1.1121,-1.113,-1.1109,-1.1176,-1.1155,-1.116,-1.1169,-1.1175,-1.118,-1.1177,-1.1091,0,0,0,0,0,-1.0966,-1.099,-1.1004,-1.1039,-1.1048,-1.1055,-1.1069,-1.1069,-1.1086,-1.1092,-1.1103,-1.112,-1.1144,-1.116,-1.1183,-1.1227,-1.1231,-1.1247,-1.1252,-1.1256,-1.126,-1.1284,-1.1292,-1.1215,-1.1215,-1.1215,0,0,-1.0985,-1.0997,-1.1012,-1.1043,-1.1056,-1.1081,-1.1061,-1.1088,-1.1107,-1.1097,-1.1132,-1.1141,-1.116,-1.1201,-1.1219,-1.1209,-1.1282,-1.126,-1.1263,-1.1265,-1.1289,-1.1296,-1.1302,-1.1217,-1.1217,-1.1217,0,0,-1.1032,-1.1044,-1.1074,-1.1087,-1.1106,-1.1111,-1.1119,-1.1136,-1.1142,-1.1177,-1.117,-1.1192,-1.1234,-1.1248,-1.126,-1.1313,-1.1306,-1.1321,-1.1347,-1.1371,-1.1377,-1.1382,-1.1402,-1.1408,-1.1325,-1.1325,-1.1325,0,-1.1053,-1.109,-1.1091,-1.1119,-1.1133,-1.1124,-1.1156,-1.1168,-1.1194,-1.1204,-1.1193,-1.1245,-1.1257,-1.1301,-1.1314,-1.1324,-1.1333,-1.1318,-1.1376,-1.1381,-1.1386,-1.1405,-1.1412,-1.1327,-1.1326,-1.1326,-1.1326,0,-1.1115,-1.1142,-1.1164,-1.1189,-1.1206,-1.1235,-1.1241,-1.1257,-1.1256,-1.1262,-1.1298,-1.1313,-1.1338,-1.1349,-1.1347,-1.1393,-1.1386,-1.1375,-1.1355,-1.1395,-1.1413,-1.142,-1.1329,-1.1328,-1.1328,-1.1327,0,0,-1.1176,-1.1201,-1.1209,-1.122,-1.1241,-1.1262,-1.1291,-1.1316,-1.133,-1.1349,-1.1374,-1.1409,-1.1399,-1.1413,-1.1413,-1.1434,-1.1476,-1.1421,-1.1421,-1.1431,-1.1527,-1.1535,-1.1543,-1.1471,-1.1473,-1.1474,-1.1526,0,-1.1225,-1.1276,-1.1278,-1.1325,-1.1349,-1.1342,-1.1367,-1.1383,-1.139,-1.1412,-1.1419,-1.1444,-1.1429,-1.1438,-1.1458,-1.1466,-1.1495,-1.1463,-1.1495,-1.1496,-1.1491,-1.1552,-1.1561,-1.1609,-1.1532,-1.1533,-1.1534,0,-1.1289,-1.1309,-1.1359,-1.1376,-1.1387,-1.141,-1.1433,-1.1454,-1.1472,-1.1475,-1.1491,-1.1488,-1.1519,-1.1497,-1.1539,-1.1517,-1.1531,-1.1537,-1.1539,-1.1542,-1.1518,-1.1558,-1.1625,-1.1632,-1.1545,-1.1544,-1.1543,0,-1.1329,-1.1368,-1.1403,-1.1413,-1.1434,-1.1451,-1.146,-1.1477,-1.1492,-1.1512,-1.1522,-1.1546,-1.1559,-1.1577,-1.1581,-1.1565,-1.1623,-1.1602,-1.1627,-1.1627,-1.164,-1.164,-1.1711,-1.1648,-1.1648,-1.1648,-1.1648,0,-1.1384,-1.1415,-1.1421,-1.1443,-1.1477,-1.1479,-1.1513,-1.1521,-1.1536,-1.1559,-1.1554,-1.1576,-1.1579,-1.1602,-1.1605,-1.164,-1.1646,-1.165,-1.165,-1.165,-1.165,-1.1659,-1.1656,-1.165,-1.165,-1.1649,-1.1649,0,-1.1434,-1.144,-1.1477,-1.1494,-1.1499,-1.1524,-1.1538,-1.1559,-1.1565,-1.1595,-1.1602,-1.1611,-1.1638,-1.1643,-1.1675,-1.1677,-1.1719,-1.1716,-1.1713,-1.1712,-1.1738,-1.1735,-1.1818,-1.1829,-1.1759,-1.1759,-1.176,0,-1.1469,-1.1493,-1.1512,-1.1527,-1.1538,-1.1562,-1.1577,-1.1579,-1.1596,-1.1618,-1.1636,-1.1662,-1.1683,-1.1726,-1.1736,-1.176,-1.1758,-1.1785,-1.1762,-1.1761,-1.1759,-1.1758,-1.176,-1.179,-1.1791,-1.1791,-1.1792,0,-1.1531,-1.1533,-1.1555,-1.1578,-1.1596,-1.1615,-1.1632,-1.1645,-1.165,-1.1668,-1.1695,-1.1712,-1.1744,-1.177,-1.1794,-1.1805,-1.1799,-1.1799,-1.1806,-1.1807,-1.1805,-1.1807,-1.1725,-1.1797,-1.1797,-1.1796,-1.1796,-1.1796,-1.1575,-1.1596,-1.1613,-1.1637,-1.1651,-1.1667,-1.1688,-1.1696,-1.1719,-1.1745,-1.1745,-1.1775,-1.1792,-1.1824,-1.1836,-1.186,-1.1851,-1.1862,-1.1864,-1.1867,-1.1869,-1.18,-1.1864,-1.1864,-1.1864,-1.1864,-1.1863,0,-1.1637,-1.1648,-1.167,-1.1695,-1.1714,-1.1707,-1.1726,-1.1743,-1.177,-1.1786,-1.1807,-1.1838,-1.1864,-1.1875,-1.1901,-1.1917,-1.1915,-1.1924,-1.1923,-1.1925,-1.1875,-1.1867,-1.1925,-1.1925,-1.1925,-1.1925,-1.1925,-1.1925,-1.1672,-1.1706,-1.171,-1.1751,-1.1761,-1.179,-1.1802,-1.1817,-1.183,-1.1866,-1.1886,-1.1894,-1.1909,-1.1935,-1.1958,-1.1961,-1.197,-1.198,-1.1982,-1.1935,-1.1929,-1.1923,-1.1915,-1.1982,-1.1982,-1.203,-1.203,-1.2031]},{"header":{"parameterUnit":"m.s-1","parameterCategory":1,"la1":30.2991,"la2":30.254,"lo1":-89.0895,"lo2":-89.0444,"dy":0.0017,"dx":0.0017,"nx":28,"ny":28,"refTime":"2025-09-16T09:00:00:Z","depth":0,"parameterNumber":3,"parameterNumberName":"V-component_of_WINDS"},"data":[0,0,0,0,0,0,0,0,0,0,0,0,0,0,0,0,0,0,0,0,0,0,0,0,0,0,0,0,0,0,0,0,0,0,0,0,0,0,0,0,0,0,0,0,0,0,0,0,0,0,0,0,0,0,0,0,0,0,3.9783,3.9783,0,3.979,3.979,3.979,3.9746,3.9745,3.9744,3.9743,3.975,3.9751,3.9752,0,0,0,0,0,0,0,0,0,0,0,0,0,3.9729,3.9731,3.9783,3.9783,3.9783,3.979,3.979,3.979,3.9746,3.9745,3.9743,3.9742,3.9749,3.9751,3.9752,0,0,0,0,0,0,0,0,0,0,0,0,0,3.9746,3.9731,3.9783,3.9762,3.976,3.979,3.979,3.979,3.9747,3.9745,3.9743,3.9741,3.9749,3.975,3.9752,3.9803,0,0,3.9759,3.976,0,0,0,0,0,0,0,0,3.9745,3.9748,3.9765,3.9763,3.9762,3.9765,3.9774,3.9794,3.9747,3.9752,3.9743,3.974,3.9756,3.9758,3.9763,3.9803,3.9803,3.9759,3.976,3.9761,3.9762,0,0,0,0,0,0,0,3.9744,3.9748,3.9786,3.9765,3.9763,3.9752,3.9752,3.9778,3.9764,3.9751,3.9748,3.975,3.9755,3.9761,3.9763,3.9803,3.9759,3.9761,3.9762,3.9763,3.9882,3.9884,0,0,0,0,0,0,3.9746,3.9747,3.9785,3.9786,3.9749,3.9754,3.9755,3.9766,3.9764,3.9762,3.9751,3.9748,3.9759,3.9761,3.9763,3.9819,3.9761,3.9763,3.9764,3.988,3.9882,3.9885,0,0,0,0,0,0,3.9745,3.975,3.9785,3.9766,3.9769,3.9757,3.977,3.9767,3.9773,3.9764,3.9761,3.976,3.9757,3.976,3.9792,3.9819,3.9764,3.9766,3.9878,3.9881,3.9884,3.9933,0,0,0,0,0,0,3.9744,3.975,3.9769,3.9766,3.977,3.9815,3.9772,3.9769,3.9777,3.9772,3.9772,3.977,3.9756,3.979,3.9794,3.9821,3.9767,3.9875,3.9879,3.9883,3.9929,3.9938,3.9945,0,0,0,0,0,3.9742,3.9783,3.977,3.9775,3.9794,3.9817,3.9819,3.9803,3.9779,3.9798,3.9792,3.977,3.9816,3.9793,3.9798,3.9825,3.9873,3.9878,3.9882,3.9926,3.9936,3.9945,0,0,0,0,0,0,3.9789,3.9783,3.9768,3.981,3.9814,3.9809,3.9832,3.9814,3.9825,3.982,3.9799,3.98,3.9835,3.9834,3.9809,3.9873,3.984,3.9846,3.9872,3.9881,3.9889,3.9887,3.9769,0,0,0,0,0,3.9805,3.9824,3.9817,3.9854,3.9857,3.9845,3.9854,3.9841,3.9844,3.9846,3.9842,3.9846,3.9861,3.9872,3.9885,3.993,3.9928,3.9951,3.9959,3.9965,3.9969,3.999,4.0,3.9899,3.9899,3.9899,0,0,3.9837,3.9835,3.9849,3.9864,3.9866,3.9885,3.9846,3.9869,3.9883,3.9849,3.9879,3.9877,3.988,3.9918,3.9934,3.9918,3.9997,3.9971,3.9976,3.9976,3.9996,4.0005,4.0014,3.9902,3.9901,3.9901,0,0,3.9904,3.9906,3.9936,3.9938,3.9941,3.9933,3.994,3.9938,3.9934,3.9964,3.9939,3.9955,3.9982,3.9985,3.9989,4.0057,4.0036,4.0062,4.0102,4.0122,4.013,4.0137,4.0159,4.0167,4.0067,4.0067,4.0067,0,3.9943,3.9971,3.9954,3.9977,3.9984,3.9955,3.9984,3.9987,3.9995,4.0,3.9982,4.0014,4.0014,4.0051,4.0067,4.0073,4.0079,4.0061,4.0131,4.0137,4.0144,4.0164,4.0172,4.007,4.007,4.007,4.0069,0,4.0017,4.0037,4.0061,4.0068,4.0078,4.0105,4.009,4.0102,4.0089,4.0082,4.0111,4.0111,4.0122,4.0131,4.0118,4.0166,4.0155,4.0134,4.0101,4.0156,4.0175,4.0183,4.0074,4.0073,4.0072,4.0072,0,0,4.0114,4.011,4.0119,4.0121,4.0122,4.0137,4.0162,4.0173,4.0182,4.0189,4.0208,4.0231,4.0212,4.0217,4.0205,4.0223,4.0274,4.02,4.02,4.0211,4.0323,4.0337,4.0346,4.0261,4.0262,4.0264,4.0322,0,4.0177,4.0218,4.0203,4.0246,4.0263,4.0235,4.0256,4.0259,4.0253,4.0266,4.026,4.0276,4.025,4.0253,4.027,4.0264,4.0295,4.026,4.0277,4.0277,4.0274,4.0356,4.0371,4.0426,4.0329,4.0331,4.0332,0,4.0256,4.0264,4.0308,4.0305,4.0311,4.0331,4.0339,4.0353,4.0355,4.0349,4.0355,4.0338,4.0361,4.033,4.036,4.0337,4.0343,4.0341,4.0343,4.0341,4.0306,4.0355,4.0444,4.0451,4.0343,4.0342,4.0342,0,4.0318,4.0341,4.0369,4.0372,4.037,4.0383,4.0383,4.0383,4.039,4.0398,4.0402,4.0413,4.0418,4.0426,4.0412,4.0391,4.0444,4.0412,4.0439,4.0439,4.0449,4.0448,4.0537,4.0458,4.0458,4.0458,4.0457,0,4.0389,4.0416,4.0397,4.0414,4.0443,4.0426,4.0455,4.0452,4.0452,4.0467,4.0446,4.046,4.0442,4.0455,4.0445,4.047,4.0474,4.0469,4.0465,4.0469,4.0469,4.0471,4.0466,4.046,4.0459,4.0459,4.0458,0,4.0463,4.0451,4.048,4.0474,4.0474,4.0495,4.049,4.0506,4.0498,4.0518,4.0522,4.051,4.0525,4.0512,4.0526,4.0519,4.0552,4.0545,4.0551,4.0548,4.0574,4.0571,4.0665,4.0676,4.0592,4.0593,4.0594,0,4.0507,4.0527,4.0524,4.0532,4.0533,4.0547,4.0554,4.0538,4.0546,4.0549,4.0564,4.0576,4.0584,4.0608,4.0601,4.0611,4.0602,4.0634,4.0603,4.0606,4.0599,4.0597,4.0598,4.064,4.0641,4.0642,4.0642,0,4.0587,4.0579,4.059,4.0599,4.0608,4.0614,4.0618,4.0627,4.0609,4.062,4.0633,4.064,4.0654,4.0666,4.0673,4.0672,4.0654,4.0653,4.0659,4.0662,4.0663,4.066,4.0565,4.065,4.0649,4.0648,4.0648,4.0648,4.0645,4.0661,4.066,4.0672,4.0674,4.0678,4.0691,4.0685,4.0697,4.0706,4.0696,4.0712,4.0713,4.0721,4.0722,4.0734,4.0721,4.073,4.0732,4.0734,4.0736,4.0664,4.0736,4.0736,4.0736,4.0735,4.0735,0,4.0721,4.0719,4.0731,4.0737,4.0746,4.0729,4.0732,4.0741,4.0755,4.0757,4.0766,4.0781,4.0792,4.0786,4.0795,4.0806,4.0798,4.0809,4.0807,4.0806,4.075,4.0742,4.0815,4.0815,4.0815,4.0815,4.0815,4.0815,4.0761,4.0786,4.0779,4.0803,4.0801,4.0816,4.082,4.0823,4.0824,4.0842,4.0851,4.0847,4.0845,4.0854,4.0863,4.0861,4.0864,4.0878,4.0872,4.0819,4.0811,4.0803,4.0796,4.0879,4.0879,4.0927,4.0928,4.0928]}]]